Time,TemperatureF,DewpointF,PressureIn,WindDirection,WindDirectionDegrees,WindSpeedMPH,WindSpeedGustMPH,Humidity,HourlyPrecipIn,Conditions,Clouds,dailyrainin,SoftwareType,DateUTC
2013-03-25 00:00:00,42.2,41.9,29.53,SE,136,0.0,4.0,99,0.00,,-RA,1.08,VWS V14.01,2013-03-25 04:00:00,
2013-03-25 00:05:00,42.2,41.9,29.53,SSE,150,2.0,4.0,99,0.00,,-RA,0.00,VWS V14.01,2013-03-25 04:05:00,
2013-03-25 00:10:00,42.2,41.9,29.53,SSE,154,0.0,4.0,99,0.00,,-RA,0.00,VWS V14.01,2013-03-25 04:10:00,
2013-03-25 00:15:00,42.2,41.9,29.53,SSE,154,1.0,2.0,99,0.00,,-RA,0.00,VWS V14.01,2013-03-25 04:15:00,
2013-03-25 00:20:00,42.3,42.0,29.53,SSE,160,0.0,5.0,99,0.00,,-RA,0.00,VWS V14.01,2013-03-25 04:20:00,
2013-03-25 00:25:00,42.3,42.0,29.53,SSE,160,3.0,3.0,99,0.00,,-RA,0.00,VWS V14.01,2013-03-25 04:25:00,
2013-03-25 00:30:00,42.3,42.0,29.53,SSE,158,2.0,3.0,99,0.00,,-RA,0.00,VWS V14.01,2013-03-25 04:30:00,
2013-03-25 00:35:00,42.3,42.0,29.53,SSE,158,0.0,1.0,99,0.00,,-RA,0.00,VWS V14.01,2013-03-25 04:35:00,
2013-03-25 00:40:00,42.5,42.2,29.53,South,175,5.0,5.0,99,0.00,,-RA,0.00,VWS V14.01,2013-03-25 04:40:00,
2013-03-25 00:45:00,42.5,42.2,29.53,WSW,257,7.0,7.0,99,0.00,,,0.00,VWS V14.01,2013-03-25 04:45:00,
2013-03-25 00:50:00,42.6,42.3,29.53,WNW,303,6.0,6.0,99,0.00,,,0.00,VWS V14.01,2013-03-25 04:50:00,
2013-03-25 00:55:00,42.8,42.5,29.53,WNW,286,3.0,7.0,99,0.00,,,0.00,VWS V14.01,2013-03-25 04:55:00,
2013-03-25 01:00:00,42.9,42.6,29.53,WSW,249,3.0,7.0,99,0.00,,,0.00,VWS V14.01,2013-03-25 05:00:00,
2013-03-25 01:05:00,42.9,42.6,29.53,West,259,4.0,7.0,99,0.00,,,0.00,VWS V14.01,2013-03-25 05:05:00,
2013-03-25 01:10:00,43.1,42.6,29.53,SW,236,4.0,10.0,98,0.00,,,0.00,VWS V14.01,2013-03-25 05:10:00,
2013-03-25 01:15:00,43.2,42.4,29.53,West,261,2.0,6.0,97,0.00,,,0.00,VWS V14.01,2013-03-25 05:15:00,
2013-03-25 01:20:00,43.2,41.6,29.53,West,281,5.0,8.0,94,0.00,,,0.00,VWS V14.01,2013-03-25 05:20:00,
2013-03-25 01:25:00,43.3,41.4,29.53,NW,308,5.0,7.0,93,0.00,,,0.00,VWS V14.01,2013-03-25 05:25:00,
2013-03-25 01:30:00,43.3,40.8,29.53,West,275,4.0,9.0,91,0.00,,,0.00,VWS V14.01,2013-03-25 05:30:00,
2013-03-25 01:35:00,43.2,40.2,29.53,WNW,283,5.0,7.0,89,0.00,,,0.00,VWS V14.01,2013-03-25 05:35:00,
2013-03-25 01:40:00,43.1,39.5,29.53,WNW,302,5.0,10.0,87,0.00,,,0.00,VWS V14.01,2013-03-25 05:40:00,
2013-03-25 01:45:00,42.9,38.7,29.54,WSW,257,10.0,10.0,85,0.00,,,0.00,VWS V14.01,2013-03-25 05:45:00,
2013-03-25 01:50:00,42.8,38.0,29.54,WNW,297,3.0,13.0,83,0.00,,,0.00,VWS V14.01,2013-03-25 05:50:00,
2013-03-25 01:55:00,42.6,37.2,29.54,West,264,6.0,12.0,81,0.00,,,0.00,VWS V14.01,2013-03-25 05:55:00,
2013-03-25 02:00:00,42.5,36.8,29.55,West,275,5.0,9.0,80,0.00,,,0.00,VWS V14.01,2013-03-25 06:00:00,
2013-03-25 02:05:00,42.3,36.3,29.55,West,273,12.0,12.0,79,0.00,,,0.00,VWS V14.01,2013-03-25 06:05:00,
2013-03-25 02:10:00,42.2,35.2,29.55,West,274,9.0,12.0,76,0.00,,,0.00,VWS V14.01,2013-03-25 06:10:00,
2013-03-25 02:15:00,42.2,34.9,29.55,West,277,7.0,10.0,75,0.00,,,0.00,VWS V14.01,2013-03-25 06:15:00,
2013-03-25 02:20:00,42.1,33.7,29.55,West,278,13.0,13.0,72,0.00,,,0.00,VWS V14.01,2013-03-25 06:20:00,
2013-03-25 02:25:00,42.1,32.3,29.55,West,273,5.0,19.0,68,0.00,,,0.00,VWS V14.01,2013-03-25 06:25:00,
2013-03-25 02:30:00,41.9,32.8,29.55,West,266,2.0,7.0,70,0.00,,,0.00,VWS V14.01,2013-03-25 06:30:00,
2013-03-25 02:35:00,41.9,32.5,29.55,West,279,4.0,13.0,69,0.00,,,0.00,VWS V14.01,2013-03-25 06:35:00,
2013-03-25 02:40:00,41.8,32.8,29.55,WNW,290,12.0,12.0,70,0.00,,,0.00,VWS V14.01,2013-03-25 06:40:00,
2013-03-25 02:45:00,41.6,33.3,29.56,West,265,4.0,7.0,72,0.00,,,0.00,VWS V14.01,2013-03-25 06:45:00,
2013-03-25 02:50:00,41.5,34.2,29.56,WSW,254,5.0,9.0,75,0.00,,,0.00,VWS V14.01,2013-03-25 06:50:00,
2013-03-25 02:55:00,41.3,34.7,29.56,West,271,3.0,9.0,77,0.00,,,0.00,VWS V14.01,2013-03-25 06:55:00,
2013-03-25 03:00:00,41.1,34.5,29.56,WNW,290,4.0,7.0,77,0.00,,,0.00,VWS V14.01,2013-03-25 07:00:00,
2013-03-25 03:05:00,40.9,34.3,29.56,West,263,4.0,7.0,77,0.00,,,0.00,VWS V14.01,2013-03-25 07:05:00,
2013-03-25 03:10:00,40.8,34.2,29.56,West,267,3.0,10.0,77,0.00,,,0.00,VWS V14.01,2013-03-25 07:10:00,
2013-03-25 03:15:00,40.6,33.6,29.56,WSW,254,2.0,6.0,76,0.00,,,0.00,VWS V14.01,2013-03-25 07:15:00,
2013-03-25 03:20:00,40.5,33.5,29.56,WSW,238,5.0,7.0,76,0.00,,,0.00,VWS V14.01,2013-03-25 07:20:00,
2013-03-25 03:25:00,40.5,33.2,29.56,West,269,4.0,9.0,75,0.00,,,0.00,VWS V14.01,2013-03-25 07:25:00,
2013-03-25 03:30:00,40.3,33.0,29.56,West,274,5.0,6.0,75,0.00,,,0.00,VWS V14.01,2013-03-25 07:30:00,
2013-03-25 03:35:00,40.3,32.7,29.56,WNW,291,4.0,8.0,74,0.00,,,0.00,VWS V14.01,2013-03-25 07:35:00,
2013-03-25 03:40:00,40.2,32.2,29.56,WNW,303,4.0,7.0,73,0.00,,,0.00,VWS V14.01,2013-03-25 07:40:00,
2013-03-25 03:45:00,40.2,32.2,29.56,SW,215,3.0,6.0,73,0.00,,,0.00,VWS V14.01,2013-03-25 07:45:00,
2013-03-25 03:50:00,40.2,32.2,29.56,WSW,243,6.0,12.0,73,0.00,,CLR,0.00,VWS V14.01,2013-03-25 07:50:00,
2013-03-25 03:55:00,40.2,31.9,29.56,SW,225,5.0,9.0,72,0.00,,CLR,0.00,VWS V14.01,2013-03-25 07:55:00,
2013-03-25 04:00:00,40.2,31.6,29.56,West,281,3.0,11.0,71,0.00,,CLR,0.00,VWS V14.01,2013-03-25 08:00:00,
2013-03-25 04:05:00,40.2,31.9,29.56,West,264,5.0,7.0,72,0.00,,CLR,0.00,VWS V14.01,2013-03-25 08:05:00,
2013-03-25 04:10:00,40.1,31.5,29.56,West,262,3.0,10.0,71,0.00,,CLR,0.00,VWS V14.01,2013-03-25 08:10:00,
2013-03-25 04:15:00,40.1,31.5,29.56,WNW,288,5.0,7.0,71,0.00,,CLR,0.00,VWS V14.01,2013-03-25 08:15:00,
2013-03-25 04:20:00,39.9,31.6,29.56,West,273,4.0,7.0,72,0.00,,CLR,0.00,VWS V14.01,2013-03-25 08:20:00,
2013-03-25 04:25:00,39.9,31.3,29.56,West,264,4.0,13.0,71,0.00,,CLR,0.00,VWS V14.01,2013-03-25 08:25:00,
2013-03-25 04:30:00,39.8,31.2,29.56,WNW,288,6.0,6.0,71,0.00,,CLR,0.00,VWS V14.01,2013-03-25 08:30:00,
2013-03-25 04:35:00,39.8,31.5,29.56,West,259,3.0,9.0,72,0.00,,CLR,0.00,VWS V14.01,2013-03-25 08:35:00,
2013-03-25 04:40:00,39.5,31.2,29.56,West,268,3.0,6.0,72,0.00,,CLR,0.00,VWS V14.01,2013-03-25 08:40:00,
2013-03-25 04:45:00,39.5,30.9,29.56,WNW,297,3.0,9.0,71,0.00,,CLR,0.00,VWS V14.01,2013-03-25 08:45:00,
2013-03-25 04:50:00,39.5,30.9,29.56,West,277,2.0,5.0,71,0.00,,CLR,0.00,VWS V14.01,2013-03-25 08:50:00,
2013-03-25 04:55:00,39.6,30.6,29.56,West,271,7.0,12.0,70,0.00,,CLR,0.00,VWS V14.01,2013-03-25 08:55:00,
2013-03-25 05:00:00,39.6,31.0,29.57,WSW,247,3.0,9.0,71,0.00,,CLR,0.00,VWS V14.01,2013-03-25 09:00:00,
2013-03-25 05:05:00,39.6,30.6,29.57,West,266,6.0,10.0,70,0.00,,CLR,0.00,VWS V14.01,2013-03-25 09:05:00,
2013-03-25 05:10:00,39.6,30.6,29.57,SSE,147,0.0,7.0,70,0.00,,CLR,0.00,VWS V14.01,2013-03-25 09:10:00,
2013-03-25 05:15:00,39.8,30.5,29.58,West,262,4.0,10.0,69,0.00,,CLR,0.00,VWS V14.01,2013-03-25 09:15:00,
2013-03-25 05:20:00,39.8,30.8,29.58,WSW,242,3.0,10.0,70,0.00,,CLR,0.00,VWS V14.01,2013-03-25 09:20:00,
2013-03-25 05:25:00,39.6,30.6,29.58,West,271,4.0,8.0,70,0.00,,CLR,0.00,VWS V14.01,2013-03-25 09:25:00,
2013-03-25 05:30:00,39.6,29.9,29.58,WSW,256,4.0,13.0,68,0.00,,CLR,0.00,VWS V14.01,2013-03-25 09:30:00,
2013-03-25 05:35:00,39.9,29.5,29.58,West,261,6.0,12.0,66,0.00,,CLR,0.00,VWS V14.01,2013-03-25 09:35:00,
2013-03-25 05:40:00,39.9,29.1,29.58,WNW,285,5.0,13.0,65,0.00,,CLR,0.00,VWS V14.01,2013-03-25 09:40:00,
2013-03-25 05:45:00,39.9,28.7,29.59,West,280,5.0,11.0,64,0.00,,CLR,0.00,VWS V14.01,2013-03-25 09:45:00,
2013-03-25 05:50:00,39.6,27.7,29.59,WNW,286,7.0,13.0,62,0.00,,BKN060,0.00,VWS V14.01,2013-03-25 09:50:00,
2013-03-25 05:55:00,39.5,26.8,29.59,WNW,302,11.0,14.0,60,0.00,,BKN060,0.00,VWS V14.01,2013-03-25 09:55:00,
2013-03-25 05:59:00,39.3,26.2,29.60,West,280,9.0,13.0,59,0.00,,BKN060,0.00,VWS V14.01,2013-03-25 09:59:00,
2013-03-25 06:04:00,39.2,26.1,29.60,West,267,10.0,12.0,59,0.00,,BKN060,0.00,VWS V14.01,2013-03-25 10:04:00,
2013-03-25 06:09:00,38.9,25.4,29.60,WNW,289,10.0,13.0,58,0.00,,BKN060,0.00,VWS V14.01,2013-03-25 10:09:00,
2013-03-25 06:14:00,38.8,24.5,29.60,WNW,286,10.0,15.0,56,0.00,,BKN060,0.00,VWS V14.01,2013-03-25 10:14:00,
2013-03-25 06:19:00,38.6,24.3,29.60,West,272,7.0,15.0,56,0.00,,BKN060,0.00,VWS V14.01,2013-03-25 10:19:00,
2013-03-25 06:24:00,38.5,24.2,29.60,West,281,5.0,13.0,56,0.00,,BKN060,0.00,VWS V14.01,2013-03-25 10:24:00,
2013-03-25 06:29:00,38.5,24.6,29.61,WSW,257,6.0,15.0,57,0.00,,BKN060,0.00,VWS V14.01,2013-03-25 10:29:00,
2013-03-25 06:34:00,38.5,24.2,29.61,WNW,291,6.0,18.0,56,0.00,,BKN060,0.00,VWS V14.01,2013-03-25 10:34:00,
2013-03-25 06:39:00,38.3,23.6,29.61,WNW,288,13.0,15.0,55,0.00,,BKN060,0.00,VWS V14.01,2013-03-25 10:39:00,
2013-03-25 06:44:00,38.3,23.6,29.62,West,277,6.0,14.0,55,0.00,,BKN060,0.00,VWS V14.01,2013-03-25 10:44:00,
2013-03-25 06:49:00,38.2,23.9,29.62,WNW,292,12.0,13.0,56,0.00,,OVC060,0.00,VWS V14.01,2013-03-25 10:49:00,
2013-03-25 06:54:00,38.0,22.9,29.62,West,271,11.0,15.0,54,0.00,,OVC060,0.00,VWS V14.01,2013-03-25 10:54:00,
2013-03-25 06:59:00,37.9,22.8,29.62,West,273,5.0,14.0,54,0.00,,OVC060,0.00,VWS V14.01,2013-03-25 10:59:00,
2013-03-25 07:04:00,37.9,23.2,29.62,WNW,300,9.0,12.0,55,0.00,,OVC060,0.00,VWS V14.01,2013-03-25 11:04:00,
2013-03-25 07:09:00,37.8,23.1,29.62,WNW,300,10.0,16.0,55,0.00,,OVC060,0.00,VWS V14.01,2013-03-25 11:09:00,
2013-03-25 07:14:00,37.8,23.1,29.62,West,278,6.0,15.0,55,0.00,,OVC060,0.00,VWS V14.01,2013-03-25 11:14:00,
2013-03-25 07:19:00,37.6,22.5,29.62,NW,306,11.0,11.0,54,0.00,,OVC060,0.00,VWS V14.01,2013-03-25 11:19:00,
2013-03-25 07:24:00,37.6,22.5,29.62,West,280,14.0,18.0,54,0.00,,OVC060,0.00,VWS V14.01,2013-03-25 11:24:00,
2013-03-25 07:29:00,37.5,22.4,29.63,WSW,258,5.0,14.0,54,0.00,,OVC060,0.00,VWS V14.01,2013-03-25 11:29:00,
2013-03-25 07:34:00,37.3,22.6,29.63,NNW,331,3.0,19.0,55,0.00,,OVC060,0.00,VWS V14.01,2013-03-25 11:34:00,
2013-03-25 07:39:00,37.2,22.5,29.63,West,271,4.0,16.0,55,0.00,,OVC060,0.00,VWS V14.01,2013-03-25 11:39:00,
2013-03-25 07:44:00,37.0,22.4,29.63,NNW,331,3.0,13.0,55,0.00,,OVC060,0.00,VWS V14.01,2013-03-25 11:44:00,
2013-03-25 07:49:00,37.0,21.5,29.63,West,275,7.0,13.0,53,0.00,,BKN060,0.00,VWS V14.01,2013-03-25 11:49:00,
2013-03-25 07:54:00,37.0,21.0,29.63,West,267,11.0,14.0,52,0.00,,BKN060,0.00,VWS V14.01,2013-03-25 11:54:00,
2013-03-25 07:59:00,37.2,22.1,29.64,West,276,4.0,13.0,54,0.00,,BKN060,0.00,VWS V14.01,2013-03-25 11:59:00,
2013-03-25 08:04:00,37.2,21.2,29.64,WNW,294,4.0,20.0,52,0.00,,BKN060,0.00,VWS V14.01,2013-03-25 12:04:00,
2013-03-25 08:09:00,37.3,21.8,29.64,WNW,288,6.0,15.0,53,0.00,,BKN060,0.00,VWS V14.01,2013-03-25 12:09:00,
2013-03-25 08:14:00,37.3,21.8,29.65,West,267,13.0,18.0,53,0.00,,BKN060,0.00,VWS V14.01,2013-03-25 12:14:00,
2013-03-25 08:19:00,37.5,22.4,29.65,WSW,253,6.0,9.0,54,0.00,,BKN060,0.00,VWS V14.01,2013-03-25 12:19:00,
2013-03-25 08:24:00,37.5,21.9,29.65,West,281,10.0,16.0,53,0.00,,BKN060,0.00,VWS V14.01,2013-03-25 12:24:00,
2013-03-25 08:29:00,37.6,22.5,29.65,WNW,292,8.0,15.0,54,0.00,,BKN060,0.00,VWS V14.01,2013-03-25 12:29:00,
2013-03-25 08:34:00,37.6,21.1,29.65,WNW,285,10.0,16.0,51,0.00,,BKN060,0.00,VWS V14.01,2013-03-25 12:34:00,
2013-03-25 08:39:00,37.8,21.8,29.65,NW,323,6.0,17.0,52,0.00,,BKN060,0.00,VWS V14.01,2013-03-25 12:39:00,
2013-03-25 08:44:00,37.8,22.2,29.65,WNW,289,9.0,11.0,53,0.00,,BKN060,0.00,VWS V14.01,2013-03-25 12:44:00,
2013-03-25 08:49:00,37.9,21.9,29.65,West,265,7.0,15.0,52,0.00,,BKN060,0.00,VWS V14.01,2013-03-25 12:49:00,
2013-03-25 08:54:00,37.9,21.4,29.65,WNW,284,7.0,14.0,51,0.00,,BKN060,0.00,VWS V14.01,2013-03-25 12:54:00,
2013-03-25 08:59:00,38.0,21.0,29.65,West,263,7.0,15.0,50,0.00,,BKN060,0.00,VWS V14.01,2013-03-25 12:59:00,
2013-03-25 09:04:00,38.2,21.7,29.66,West,272,13.0,20.0,51,0.00,,BKN060,0.00,VWS V14.01,2013-03-25 13:04:00,
2013-03-25 09:09:00,38.2,22.1,29.66,WNW,297,6.0,12.0,52,0.00,,BKN060,0.00,VWS V14.01,2013-03-25 13:09:00,
2013-03-25 09:14:00,38.3,21.8,29.66,West,261,11.0,16.0,51,0.00,,BKN060,0.00,VWS V14.01,2013-03-25 13:14:00,
2013-03-25 09:19:00,38.5,22.0,29.67,West,267,13.0,14.0,51,0.00,,BKN060,0.00,VWS V14.01,2013-03-25 13:19:00,
2013-03-25 09:24:00,38.6,22.0,29.67,WNW,294,10.0,21.0,51,0.00,,BKN060,0.00,VWS V14.01,2013-03-25 13:24:00,
2013-03-25 09:29:00,38.9,22.8,29.67,WNW,288,9.0,16.0,52,0.00,,BKN060,0.00,VWS V14.01,2013-03-25 13:29:00,
2013-03-25 09:34:00,39.2,23.5,29.67,WNW,284,10.0,14.0,53,0.00,,BKN060,0.00,VWS V14.01,2013-03-25 13:34:00,
2013-03-25 09:39:00,39.5,22.4,29.67,NW,323,5.0,21.0,50,0.00,,BKN060,0.00,VWS V14.01,2013-03-25 13:39:00,
2013-03-25 09:44:00,39.8,23.2,29.67,NW,316,5.0,16.0,51,0.00,,BKN060,0.00,VWS V14.01,2013-03-25 13:44:00,
2013-03-25 09:49:00,39.8,22.2,29.67,WNW,284,10.0,19.0,49,0.00,,FEW050,0.00,VWS V14.01,2013-03-25 13:49:00,
2013-03-25 09:54:00,39.8,23.6,29.67,WNW,286,10.0,18.0,52,0.00,,FEW050,0.00,VWS V14.01,2013-03-25 13:54:00,
2013-03-25 09:59:00,39.9,24.6,29.67,WNW,288,6.0,16.0,54,0.00,,FEW050,0.00,VWS V14.01,2013-03-25 13:59:00,
2013-03-25 10:04:00,40.1,24.4,29.68,WSW,257,10.0,17.0,53,0.00,,FEW050,0.00,VWS V14.01,2013-03-25 14:04:00,
2013-03-25 10:09:00,40.2,25.3,29.68,WNW,284,15.0,22.0,55,0.00,,FEW050,0.00,VWS V14.01,2013-03-25 14:09:00,
2013-03-25 10:14:00,40.3,23.1,29.68,West,275,6.0,17.0,50,0.00,,FEW050,0.00,VWS V14.01,2013-03-25 14:14:00,
2013-03-25 10:19:00,40.8,24.5,29.68,West,274,11.0,15.0,52,0.00,,FEW050,0.00,VWS V14.01,2013-03-25 14:19:00,
2013-03-25 10:24:00,40.8,23.1,29.68,WSW,253,14.0,16.0,49,0.00,,FEW050,0.00,VWS V14.01,2013-03-25 14:24:00,
2013-03-25 10:29:00,40.8,24.5,29.68,West,276,3.0,15.0,52,0.00,,FEW050,0.00,VWS V14.01,2013-03-25 14:29:00,
2013-03-25 10:34:00,40.9,23.2,29.69,WNW,294,6.0,17.0,49,0.00,,FEW050,0.00,VWS V14.01,2013-03-25 14:34:00,
2013-03-25 10:39:00,41.2,24.0,29.69,WSW,248,4.0,16.0,50,0.00,,FEW050,0.00,VWS V14.01,2013-03-25 14:39:00,
2013-03-25 10:44:00,41.5,23.3,29.69,West,264,8.0,16.0,48,0.00,,FEW050,0.00,VWS V14.01,2013-03-25 14:44:00,
2013-03-25 10:49:00,42.1,24.3,29.69,SW,227,5.0,12.0,49,0.00,,BKN055,0.00,VWS V14.01,2013-03-25 14:49:00,
2013-03-25 10:54:00,41.8,25.5,29.69,WNW,287,4.0,16.0,52,0.00,,BKN055,0.00,VWS V14.01,2013-03-25 14:54:00,
2013-03-25 10:59:00,41.8,25.5,29.70,West,269,4.0,17.0,52,0.00,,BKN055,0.00,VWS V14.01,2013-03-25 14:59:00,
2013-03-25 11:04:00,42.1,24.8,29.70,WSW,252,12.0,20.0,50,0.00,,BKN055,0.00,VWS V14.01,2013-03-25 15:04:00,
2013-03-25 11:09:00,41.6,25.3,29.70,West,271,12.0,17.0,52,0.00,,BKN055,0.00,VWS V14.01,2013-03-25 15:09:00,
2013-03-25 11:14:00,41.9,23.7,29.70,WNW,296,10.0,12.0,48,0.00,,BKN055,0.00,VWS V14.01,2013-03-25 15:14:00,
2013-03-25 11:19:00,42.3,24.0,29.71,West,264,19.0,22.0,48,0.00,,BKN055,0.00,VWS V14.01,2013-03-25 15:19:00,
2013-03-25 11:24:00,42.5,25.2,29.71,NW,306,6.0,12.0,50,0.00,,BKN055,0.00,VWS V14.01,2013-03-25 15:24:00,
2013-03-25 11:29:00,42.8,25.0,29.71,WNW,302,10.0,13.0,49,0.00,,BKN055,0.00,VWS V14.01,2013-03-25 15:29:00,
2013-03-25 11:34:00,42.5,24.7,29.71,WSW,258,12.0,19.0,49,0.00,,BKN055,0.00,VWS V14.01,2013-03-25 15:34:00,
2013-03-25 11:39:00,42.6,24.8,29.71,NW,321,7.0,18.0,49,0.00,,BKN055,0.00,VWS V14.01,2013-03-25 15:39:00,
2013-03-25 11:44:00,42.8,25.5,29.71,West,280,10.0,15.0,50,0.00,,BKN055,0.00,VWS V14.01,2013-03-25 15:44:00,
2013-03-25 11:49:00,43.1,26.2,29.72,NW,313,10.0,17.0,51,0.00,,BKN060,0.00,VWS V14.01,2013-03-25 15:49:00,
2013-03-25 11:54:00,42.5,23.2,29.72,NW,306,6.0,17.0,46,0.00,,BKN060,0.00,VWS V14.01,2013-03-25 15:54:00,
2013-03-25 11:59:00,42.3,25.5,29.72,WSW,257,6.0,18.0,51,0.00,,BKN060,0.00,VWS V14.01,2013-03-25 15:59:00,
2013-03-25 12:04:00,42.2,21.9,29.73,WNW,290,12.0,20.0,44,0.00,,BKN060,0.00,VWS V14.01,2013-03-25 16:04:00,
2013-03-25 12:09:00,42.6,24.3,29.73,WNW,288,12.0,15.0,48,0.00,,BKN060,0.00,VWS V14.01,2013-03-25 16:09:00,
2013-03-25 12:14:00,42.5,23.2,29.73,WSW,254,9.0,12.0,46,0.00,,BKN060,0.00,VWS V14.01,2013-03-25 16:14:00,
2013-03-25 12:19:00,42.5,23.2,29.72,WSW,251,9.0,12.0,46,0.00,,BKN060,0.00,VWS V14.01,2013-03-25 16:19:00,
2013-03-25 12:24:00,43.1,22.7,29.72,West,269,6.0,14.0,44,0.00,,BKN060,0.00,VWS V14.01,2013-03-25 16:24:00,
2013-03-25 12:29:00,43.8,24.9,29.72,WNW,288,12.0,20.0,47,0.00,,BKN060,0.00,VWS V14.01,2013-03-25 16:29:00,
2013-03-25 12:34:00,43.2,21.1,29.72,West,277,5.0,22.0,41,0.00,,BKN060,0.00,VWS V14.01,2013-03-25 16:34:00,
2013-03-25 12:39:00,42.8,23.5,29.72,WNW,288,15.0,15.0,46,0.00,,BKN060,0.00,VWS V14.01,2013-03-25 16:39:00,
2013-03-25 12:44:00,42.8,22.4,29.72,WNW,300,10.0,17.0,44,0.00,,BKN060,0.00,VWS V14.01,2013-03-25 16:44:00,
2013-03-25 12:49:00,43.1,23.7,29.73,WNW,290,11.0,19.0,46,0.00,,BKN060,0.00,VWS V14.01,2013-03-25 16:49:00,
2013-03-25 12:54:00,44.1,22.5,29.73,West,268,12.0,22.0,42,0.00,,BKN060,0.00,VWS V14.01,2013-03-25 16:54:00,
2013-03-25 12:59:00,44.1,23.6,29.73,West,280,12.0,19.0,44,0.00,,BKN060,0.00,VWS V14.01,2013-03-25 16:59:00,
2013-03-25 13:04:00,44.1,21.3,29.73,WNW,300,6.0,20.0,40,0.00,,BKN060,0.00,VWS V14.01,2013-03-25 17:04:00,
2013-03-25 13:09:00,44.5,23.4,29.73,WNW,289,16.0,16.0,43,0.00,,BKN060,0.00,VWS V14.01,2013-03-25 17:09:00,
2013-03-25 13:14:00,44.3,25.4,29.73,NW,313,4.0,17.0,47,0.00,,BKN060,0.00,VWS V14.01,2013-03-25 17:14:00,
2013-03-25 13:19:00,45.1,23.4,29.72,WSW,252,3.0,12.0,42,0.00,,BKN060,0.00,VWS V14.01,2013-03-25 17:19:00,
2013-03-25 13:24:00,44.9,24.3,29.72,West,266,14.0,19.0,44,0.00,,BKN060,0.00,VWS V14.01,2013-03-25 17:24:00,
2013-03-25 13:29:00,44.6,24.0,29.72,West,273,9.0,13.0,44,0.00,,BKN060,0.00,VWS V14.01,2013-03-25 17:29:00,
2013-03-25 13:34:00,44.3,24.8,29.73,West,272,14.0,14.0,46,0.00,,BKN060,0.00,VWS V14.01,2013-03-25 17:34:00,
2013-03-25 13:39:00,44.2,23.1,29.73,West,263,20.0,24.0,43,0.00,,BKN060,0.00,VWS V14.01,2013-03-25 17:39:00,
2013-03-25 13:44:00,43.9,21.2,29.73,West,259,12.0,24.0,40,0.00,,BKN060,0.00,VWS V14.01,2013-03-25 17:44:00,
2013-03-25 13:49:00,43.6,23.1,29.74,NW,319,9.0,20.0,44,0.00,,BKN060,0.00,VWS V14.01,2013-03-25 17:49:00,
2013-03-25 13:54:00,43.5,22.0,29.74,WNW,300,13.0,22.0,42,0.00,,BKN060,0.00,VWS V14.01,2013-03-25 17:54:00,
2013-03-25 13:59:00,43.3,21.8,29.74,West,276,11.0,19.0,42,0.00,,BKN060,0.00,VWS V14.01,2013-03-25 17:59:00,
2013-03-25 14:04:00,42.9,23.0,29.74,West,280,6.0,17.0,45,0.00,,BKN060,0.00,VWS V14.01,2013-03-25 18:04:00,
2013-03-25 14:09:00,42.9,22.0,29.74,West,271,10.0,17.0,43,0.00,,BKN060,0.00,VWS V14.01,2013-03-25 18:09:00,
2013-03-25 14:14:00,43.5,23.0,29.74,WSW,248,11.0,14.0,44,0.00,,BKN060,0.00,VWS V14.01,2013-03-25 18:14:00,
2013-03-25 14:19:00,43.5,21.4,29.73,West,273,7.0,21.0,41,0.00,,BKN060,0.00,VWS V14.01,2013-03-25 18:19:00,
2013-03-25 14:24:00,43.6,22.6,29.73,West,276,12.0,15.0,43,0.00,,BKN060,0.00,VWS V14.01,2013-03-25 18:24:00,
2013-03-25 14:29:00,43.6,22.6,29.73,SW,227,9.0,20.0,43,0.00,,BKN060,0.00,VWS V14.01,2013-03-25 18:29:00,
2013-03-25 14:34:00,43.1,22.7,29.73,ESE,120,4.0,13.0,44,0.00,,BKN060,0.00,VWS V14.01,2013-03-25 18:34:00,
2013-03-25 14:39:00,42.8,23.5,29.73,West,265,5.0,17.0,46,0.00,,BKN060,0.00,VWS V14.01,2013-03-25 18:39:00,
2013-03-25 14:44:00,42.9,22.5,29.73,West,262,13.0,17.0,44,0.00,,BKN060,0.00,VWS V14.01,2013-03-25 18:44:00,
2013-03-25 14:49:00,43.6,23.1,29.73,WSW,248,10.0,15.0,44,0.00,,OVC065,0.00,VWS V14.01,2013-03-25 18:49:00,
2013-03-25 14:54:00,43.9,23.4,29.73,West,279,12.0,17.0,44,0.00,,OVC065,0.00,VWS V14.01,2013-03-25 18:54:00,
2013-03-25 14:59:00,43.9,22.9,29.73,WSW,252,20.0,20.0,43,0.00,,OVC065,0.00,VWS V14.01,2013-03-25 18:59:00,
2013-03-25 15:04:00,43.2,22.8,29.73,WSW,254,19.0,19.0,44,0.00,,OVC065,0.00,VWS V14.01,2013-03-25 19:04:00,
2013-03-25 15:09:00,43.6,22.0,29.73,West,259,19.0,20.0,42,0.00,,OVC065,0.00,VWS V14.01,2013-03-25 19:09:00,
2013-03-25 15:14:00,43.6,23.1,29.73,West,270,10.0,23.0,44,0.00,,OVC065,0.00,VWS V14.01,2013-03-25 19:14:00,
2013-03-25 15:19:00,44.5,22.3,29.73,NNW,344,7.0,18.0,41,0.00,,OVC065,0.00,VWS V14.01,2013-03-25 19:19:00,
2013-03-25 15:24:00,43.9,21.7,29.73,WNW,289,14.0,19.0,41,0.00,,OVC065,0.00,VWS V14.01,2013-03-25 19:24:00,
2013-03-25 15:29:00,43.2,21.1,29.73,NNW,338,14.0,17.0,41,0.00,,OVC065,0.00,VWS V14.01,2013-03-25 19:29:00,
2013-03-25 15:34:00,43.3,24.4,29.73,WNW,298,3.0,18.0,47,0.00,,OVC065,0.00,VWS V14.01,2013-03-25 19:34:00,
2013-03-25 15:39:00,43.6,24.2,29.73,West,270,13.0,15.0,46,0.00,,OVC065,0.00,VWS V14.01,2013-03-25 19:39:00,
2013-03-25 15:44:00,43.9,21.7,29.73,WNW,291,6.0,18.0,41,0.00,,OVC065,0.00,VWS V14.01,2013-03-25 19:44:00,
2013-03-25 15:49:00,44.5,22.9,29.73,WNW,296,10.0,19.0,42,0.00,,OVC060,0.00,VWS V14.01,2013-03-25 19:49:00,
2013-03-25 15:54:00,44.3,22.1,29.73,West,262,5.0,15.0,41,0.00,,OVC060,0.00,VWS V14.01,2013-03-25 19:54:00,
2013-03-25 15:59:00,44.1,21.9,29.73,WSW,254,11.0,15.0,41,0.00,,OVC060,0.00,VWS V14.01,2013-03-25 19:59:00,
2013-03-25 16:04:00,44.6,22.4,29.73,West,279,16.0,21.0,41,0.00,,OVC060,0.00,VWS V14.01,2013-03-25 20:04:00,
2013-03-25 16:09:00,44.1,22.5,29.73,WNW,284,13.0,22.0,42,0.00,,OVC060,0.00,VWS V14.01,2013-03-25 20:09:00,
2013-03-25 16:14:00,44.2,22.0,29.73,West,259,12.0,21.0,41,0.00,,OVC060,0.00,VWS V14.01,2013-03-25 20:14:00,
2013-03-25 16:19:00,44.8,21.4,29.74,WNW,293,7.0,17.0,39,0.00,,OVC060,0.00,VWS V14.01,2013-03-25 20:19:00,
2013-03-25 16:24:00,45.1,21.0,29.74,West,259,5.0,20.0,38,0.00,,OVC060,0.00,VWS V14.01,2013-03-25 20:24:00,
2013-03-25 16:29:00,45.1,23.4,29.74,WNW,282,12.0,20.0,42,0.00,,OVC060,0.00,VWS V14.01,2013-03-25 20:29:00,
2013-03-25 16:34:00,45.1,22.2,29.74,WNW,296,6.0,15.0,40,0.00,,OVC060,0.00,VWS V14.01,2013-03-25 20:34:00,
2013-03-25 16:39:00,44.9,22.6,29.74,West,277,9.0,17.0,41,0.00,,OVC060,0.00,VWS V14.01,2013-03-25 20:39:00,
2013-03-25 16:44:00,44.9,22.1,29.74,NNW,330,9.0,17.0,40,0.00,,OVC060,0.00,VWS V14.01,2013-03-25 20:44:00,
2013-03-25 16:49:00,44.9,23.2,29.75,WSW,251,5.0,17.0,42,0.00,,OVC065,0.00,VWS V14.01,2013-03-25 20:49:00,
2013-03-25 16:54:00,45.2,22.3,29.75,WNW,289,12.0,17.0,40,0.00,,OVC065,0.00,VWS V14.01,2013-03-25 20:54:00,
2013-03-25 16:59:00,44.9,22.6,29.75,WSW,250,6.0,18.0,41,0.00,,OVC065,0.00,VWS V14.01,2013-03-25 20:59:00,
2013-03-25 17:04:00,44.5,21.7,29.75,West,264,12.0,19.0,40,0.00,,OVC065,0.00,VWS V14.01,2013-03-25 21:04:00,
2013-03-25 17:09:00,44.8,23.1,29.75,West,280,5.0,16.0,42,0.00,,OVC065,0.00,VWS V14.01,2013-03-25 21:09:00,
2013-03-25 17:14:00,45.2,21.1,29.75,West,280,10.0,19.0,38,0.00,,OVC065,0.00,VWS V14.01,2013-03-25 21:14:00,
2013-03-25 17:19:00,44.6,21.8,29.76,West,275,6.0,23.0,40,0.00,,OVC065,0.00,VWS V14.01,2013-03-25 21:19:00,
2013-03-25 17:24:00,44.8,20.8,29.76,WNW,293,9.0,16.0,38,0.00,,OVC065,0.00,VWS V14.01,2013-03-25 21:24:00,
2013-03-25 17:29:00,43.9,21.7,29.76,West,265,16.0,16.0,41,0.00,,OVC065,0.00,VWS V14.01,2013-03-25 21:29:00,
2013-03-25 17:34:00,43.6,20.9,29.76,West,281,12.0,17.0,40,0.00,,OVC065,0.00,VWS V14.01,2013-03-25 21:34:00,
2013-03-25 17:39:00,43.9,21.7,29.76,West,274,4.0,13.0,41,0.00,,OVC065,0.00,VWS V14.01,2013-03-25 21:39:00,
2013-03-25 17:44:00,44.3,22.1,29.76,West,264,12.0,16.0,41,0.00,,OVC065,0.00,VWS V14.01,2013-03-25 21:44:00,
2013-03-25 17:49:00,44.1,21.9,29.77,WNW,292,11.0,20.0,41,0.00,,OVC065,0.00,VWS V14.01,2013-03-25 21:49:00,
2013-03-25 17:54:00,44.1,23.0,29.77,WSW,257,15.0,15.0,43,0.00,,OVC065,0.00,VWS V14.01,2013-03-25 21:54:00,
2013-03-25 17:59:00,43.8,21.1,29.77,WNW,300,9.0,26.0,40,0.00,,OVC065,0.00,VWS V14.01,2013-03-25 21:59:00,
2013-03-25 18:04:00,43.9,21.7,29.78,WNW,288,4.0,18.0,41,0.00,,OVC065,0.00,VWS V14.01,2013-03-25 22:04:00,
2013-03-25 18:09:00,43.5,21.4,29.78,West,277,10.0,16.0,41,0.00,,OVC065,0.00,VWS V14.01,2013-03-25 22:09:00,
2013-03-25 18:14:00,43.3,22.3,29.78,West,259,13.0,16.0,43,0.00,,OVC065,0.00,VWS V14.01,2013-03-25 22:14:00,
2013-03-25 18:19:00,43.1,21.6,29.79,West,263,12.0,18.0,42,0.00,,OVC065,0.00,VWS V14.01,2013-03-25 22:19:00,
2013-03-25 18:24:00,42.9,22.0,29.79,West,269,7.0,18.0,43,0.00,,OVC065,0.00,VWS V14.01,2013-03-25 22:24:00,
2013-03-25 18:29:00,43.1,21.6,29.79,West,267,9.0,16.0,42,0.00,,OVC065,0.00,VWS V14.01,2013-03-25 22:29:00,
2013-03-25 18:34:00,43.1,22.1,29.80,West,269,5.0,14.0,43,0.00,,OVC065,0.00,VWS V14.01,2013-03-25 22:34:00,
2013-03-25 18:39:00,42.9,21.4,29.80,WNW,294,5.0,14.0,42,0.00,,OVC065,0.00,VWS V14.01,2013-03-25 22:39:00,
2013-03-25 18:44:00,42.5,21.6,29.80,West,272,7.0,14.0,43,0.00,,OVC065,0.00,VWS V14.01,2013-03-25 22:44:00,
2013-03-25 18:49:00,41.9,22.1,29.80,West,272,5.0,17.0,45,0.00,,BKN065,0.00,VWS V14.01,2013-03-25 22:49:00,
2013-03-25 18:54:00,41.6,22.9,29.80,WNW,284,8.0,10.0,47,0.00,,BKN065,0.00,VWS V14.01,2013-03-25 22:54:00,
2013-03-25 18:59:00,41.3,22.6,29.80,WNW,292,5.0,16.0,47,0.00,,BKN065,0.00,VWS V14.01,2013-03-25 22:59:00,
2013-03-25 19:04:00,40.9,22.2,29.81,West,273,10.0,13.0,47,0.00,,BKN065,0.00,VWS V14.01,2013-03-25 23:04:00,
2013-03-25 19:09:00,40.3,22.2,29.81,WNW,290,6.0,12.0,48,0.00,,BKN065,0.00,VWS V14.01,2013-03-25 23:09:00,
2013-03-25 19:14:00,40.1,23.0,29.81,WNW,284,11.0,14.0,50,0.00,,BKN065,0.00,VWS V14.01,2013-03-25 23:14:00,
2013-03-25 19:19:00,39.8,21.7,29.82,West,274,12.0,14.0,48,0.00,,BKN065,0.00,VWS V14.01,2013-03-25 23:19:00,
2013-03-25 19:24:00,39.6,21.5,29.82,WNW,286,9.0,15.0,48,0.00,,BKN065,0.00,VWS V14.01,2013-03-25 23:24:00,
2013-03-25 19:29:00,39.3,22.2,29.82,West,266,12.0,23.0,50,0.00,,BKN065,0.00,VWS V14.01,2013-03-25 23:29:00,
2013-03-25 19:34:00,39.2,21.2,29.83,West,277,18.0,18.0,48,0.00,,BKN065,0.00,VWS V14.01,2013-03-25 23:34:00,
2013-03-25 19:39:00,38.9,21.4,29.83,WSW,248,8.0,13.0,49,0.00,,BKN065,0.00,VWS V14.01,2013-03-25 23:39:00,
2013-03-25 19:44:00,38.8,21.8,29.83,WNW,288,6.0,13.0,50,0.00,,BKN065,0.00,VWS V14.01,2013-03-25 23:44:00,
2013-03-25 19:49:00,38.6,20.6,29.84,WNW,284,6.0,16.0,48,0.00,,CLR,0.00,VWS V14.01,2013-03-25 23:49:00,
2013-03-25 19:54:00,38.5,21.5,29.84,WNW,283,0.0,14.0,50,0.00,,CLR,0.00,VWS V14.01,2013-03-25 23:54:00,
2013-03-25 19:59:00,38.3,21.8,29.84,WNW,293,1.0,5.0,51,0.00,,CLR,0.00,VWS V14.01,2013-03-25 23:59:00,
2013-03-25 20:04:00,38.2,21.2,29.86,West,268,2.0,12.0,50,0.00,,CLR,0.00,VWS V14.01,2013-03-26 00:04:00,
2013-03-25 20:09:00,38.0,21.5,29.86,NW,309,7.0,10.0,51,0.00,,CLR,0.00,VWS V14.01,2013-03-26 00:09:00,
2013-03-25 20:14:00,38.0,21.5,29.86,West,274,7.0,16.0,51,0.00,,CLR,0.00,VWS V14.01,2013-03-26 00:14:00,
2013-03-25 20:19:00,38.0,21.0,29.86,West,273,10.0,15.0,50,0.00,,CLR,0.00,VWS V14.01,2013-03-26 00:19:00,
2013-03-25 20:24:00,38.0,21.0,29.86,WNW,282,6.0,11.0,50,0.00,,CLR,0.00,VWS V14.01,2013-03-26 00:24:00,
2013-03-25 20:29:00,37.9,20.5,29.86,West,280,6.0,14.0,49,0.00,,CLR,0.00,VWS V14.01,2013-03-26 00:29:00,
2013-03-25 20:34:00,37.8,21.3,29.86,NW,304,6.0,17.0,51,0.00,,CLR,0.00,VWS V14.01,2013-03-26 00:34:00,
2013-03-25 20:39:00,37.8,20.4,29.86,WNW,295,8.0,13.0,49,0.00,,CLR,0.00,VWS V14.01,2013-03-26 00:39:00,
2013-03-25 20:44:00,37.6,21.6,29.86,West,266,10.0,14.0,52,0.00,,CLR,0.00,VWS V14.01,2013-03-26 00:44:00,
2013-03-25 20:49:00,37.6,21.6,29.87,WNW,290,6.0,14.0,52,0.00,,CLR,0.00,VWS V14.01,2013-03-26 00:49:00,
2013-03-25 20:54:00,37.5,21.5,29.87,West,267,11.0,12.0,52,0.00,,CLR,0.00,VWS V14.01,2013-03-26 00:54:00,
2013-03-25 20:59:00,37.3,21.3,29.87,West,268,6.0,15.0,52,0.00,,CLR,0.00,VWS V14.01,2013-03-26 00:59:00,
2013-03-25 21:04:00,37.2,21.2,29.88,WSW,251,9.0,15.0,52,0.00,,CLR,0.00,VWS V14.01,2013-03-26 01:04:00,
2013-03-25 21:09:00,37.0,20.6,29.88,West,280,12.0,12.0,51,0.00,,CLR,0.00,VWS V14.01,2013-03-26 01:09:00,
2013-03-25 21:14:00,36.9,20.5,29.88,West,271,6.0,13.0,51,0.00,,CLR,0.00,VWS V14.01,2013-03-26 01:14:00,
2013-03-25 21:19:00,36.9,20.0,29.88,WNW,289,5.0,11.0,50,0.00,,CLR,0.00,VWS V14.01,2013-03-26 01:19:00,
2013-03-25 21:24:00,36.9,20.9,29.88,WSW,258,12.0,12.0,52,0.00,,CLR,0.00,VWS V14.01,2013-03-26 01:24:00,
2013-03-25 21:29:00,36.8,20.8,29.88,West,272,3.0,10.0,52,0.00,,CLR,0.00,VWS V14.01,2013-03-26 01:29:00,
2013-03-25 21:34:00,36.6,20.6,29.89,West,272,6.0,6.0,52,0.00,,CLR,0.00,VWS V14.01,2013-03-26 01:34:00,
2013-03-25 21:39:00,36.5,21.0,29.89,West,278,12.0,12.0,53,0.00,,CLR,0.00,VWS V14.01,2013-03-26 01:39:00,
2013-03-25 21:44:00,36.3,21.7,29.89,WNW,283,1.0,9.0,55,0.00,,CLR,0.00,VWS V14.01,2013-03-26 01:44:00,
2013-03-25 21:49:00,36.2,21.2,29.90,West,275,3.0,11.0,54,0.00,,BKN070,0.00,VWS V14.01,2013-03-26 01:49:00,
2013-03-25 21:54:00,36.0,21.8,29.90,West,274,4.0,12.0,56,0.00,,BKN070,0.00,VWS V14.01,2013-03-26 01:54:00,
2013-03-25 21:59:00,35.9,21.3,29.90,West,274,7.0,12.0,55,0.00,,BKN070,0.00,VWS V14.01,2013-03-26 01:59:00,
2013-03-25 22:04:00,35.8,21.2,29.90,West,276,4.0,11.0,55,0.00,,BKN070,0.00,VWS V14.01,2013-03-26 02:04:00,
2013-03-25 22:09:00,35.8,21.6,29.90,WNW,282,3.0,8.0,56,0.00,,BKN070,0.00,VWS V14.01,2013-03-26 02:09:00,
2013-03-25 22:14:00,35.6,21.5,29.90,WSW,253,2.0,7.0,56,0.00,,BKN070,0.00,VWS V14.01,2013-03-26 02:14:00,
2013-03-25 22:19:00,35.6,21.5,29.91,West,277,4.0,9.0,56,0.00,,BKN070,0.00,VWS V14.01,2013-03-26 02:19:00,
2013-03-25 22:24:00,35.5,21.8,29.91,West,272,6.0,9.0,57,0.00,,BKN070,0.00,VWS V14.01,2013-03-26 02:24:00,
2013-03-25 22:29:00,35.5,21.4,29.91,West,274,11.0,11.0,56,0.00,,BKN070,0.00,VWS V14.01,2013-03-26 02:29:00,
2013-03-25 22:34:00,35.5,21.4,29.91,WNW,294,8.0,13.0,56,0.00,,BKN070,0.00,VWS V14.01,2013-03-26 02:34:00,
2013-03-25 22:39:00,35.5,21.4,29.91,West,271,4.0,12.0,56,0.00,,BKN070,0.00,VWS V14.01,2013-03-26 02:39:00,
2013-03-25 22:44:00,35.5,21.4,29.91,West,268,6.0,13.0,56,0.00,,BKN070,0.00,VWS V14.01,2013-03-26 02:44:00,
2013-03-25 22:49:00,35.3,21.2,29.91,West,269,4.0,12.0,56,0.00,,FEW070,0.00,VWS V14.01,2013-03-26 02:49:00,
2013-03-25 22:54:00,35.3,21.6,29.91,WNW,299,2.0,5.0,57,0.00,,FEW070,0.00,VWS V14.01,2013-03-26 02:54:00,
2013-03-25 22:59:00,35.3,21.2,29.91,West,269,4.0,13.0,56,0.00,,FEW070,0.00,VWS V14.01,2013-03-26 02:59:00,
2013-03-25 23:04:00,35.3,21.2,29.92,WNW,303,5.0,11.0,56,0.00,,FEW070,0.00,VWS V14.01,2013-03-26 03:04:00,
2013-03-25 23:09:00,35.3,21.2,29.92,WSW,237,4.0,9.0,56,0.00,,FEW070,0.00,VWS V14.01,2013-03-26 03:09:00,
2013-03-25 23:14:00,35.2,21.1,29.92,SSW,198,2.0,7.0,56,0.00,,FEW070,0.00,VWS V14.01,2013-03-26 03:14:00,
2013-03-25 23:19:00,35.0,21.3,29.92,West,273,4.0,11.0,57,0.00,,FEW070,0.00,VWS V14.01,2013-03-26 03:19:00,
2013-03-25 23:24:00,34.9,21.2,29.92,West,261,5.0,12.0,57,0.00,,FEW070,0.00,VWS V14.01,2013-03-26 03:24:00,
2013-03-25 23:29:00,34.9,21.6,29.92,WNW,291,6.0,7.0,58,0.00,,FEW070,0.00,VWS V14.01,2013-03-26 03:29:00,
2013-03-25 23:34:00,34.7,21.5,29.92,WSW,248,6.0,9.0,58,0.00,,FEW070,0.00,VWS V14.01,2013-03-26 03:34:00,
2013-03-25 23:39:00,34.7,21.0,29.92,West,265,4.0,6.0,57,0.00,,FEW070,0.00,VWS V14.01,2013-03-26 03:39:00,
2013-03-25 23:44:00,34.6,21.0,29.92,West,276,2.0,6.0,57,0.00,,FEW070,0.00,VWS V14.01,2013-03-26 03:44:00,
2013-03-25 23:49:00,34.6,21.4,29.93,WSW,248,4.0,9.0,58,0.00,,FEW065,0.00,VWS V14.01,2013-03-26 03:49:00,
2013-03-25 23:54:00,34.4,21.2,29.93,West,264,1.0,8.0,58,0.00,,FEW065,0.00,VWS V14.01,2013-03-26 03:54:00,
2013-03-25 23:59:00,34.4,21.2,29.93,West,263,5.0,7.0,58,0.00,,FEW065,0.00,VWS V14.01,2013-03-26 03:59:00,